Regional Weather Roundup
Issued by NWS

Home | Current Version | Previous Version | Text Only | Print | Product List | Glossary Off
Versions: 1 2 3 4 5 6 7 8 9 10 11 12 13 14 15 16 17 18 19 20 21 22 23 24 25 26 27 28 29 30 31 32 33 34 35 36 37 38 39 40 41 42 43 44 45 46 47 48 49 50

000
ASUS43 KBIS 260620
RWRND

NORTH DAKOTA REGIONAL WEATHER ROUNDUP
NATIONAL WEATHER SERVICE BISMARCK ND
100 AM CDT SAT JUL 26 2014

NOTE: "FAIR" INDICATES FEW OR NO CLOUDS BELOW 12,000 FEET WITH NO
SIGNIFICANT WEATHER AND/OR OBSTRUCTIONS TO VISIBILITY.


NDZ001>003-009>011-017-260700-
NORTHWEST NORTH DAKOTA

CITY           SKY/WX    TMP DP  RH WIND       PRES   REMARKS
WILLISTON      CLEAR     59  50  72 CALM      29.85R
6HR MIN TEMP:  59; 6HR MAX TEMP:  84;

MINOT          CLEAR     62  56  80 SE3       29.75F
MINOT AFB      CLEAR     61  60  96 S6        29.75S
$$

NDZ018>021-031>035-040>046-260700-
SOUTHWEST NORTH DAKOTA

CITY           SKY/WX    TMP DP  RH WIND       PRES   REMARKS
BISMARCK       CLEAR     61  53  75 SE6       29.81S
6HR MIN TEMP:  59; 6HR MAX TEMP:  82;

DICKINSON      CLEAR     58  51  78 SW8       29.85R
GARRISON         N/A     60  57  89 SE5       29.79S
6HR MIN TEMP:  59; 6HR MAX TEMP:  77;

HETTINGER ARPT CLEAR     62  48  60 CALM      29.87S
$$

NDZ004>008-012>016-024-026-027-054-260700-
NORTHEAST NORTH DAKOTA

CITY           SKY/WX    TMP DP  RH WIND       PRES   REMARKS
GRAND FORKS    CLEAR     58  55  90 SW5       29.77S
GRND FRKS AFB  CLEAR     59  58  99 SW6       29.79S
DEVILS LAKE    CLEAR     64  54  68 S9        29.79S
$$

NDZ022-023-025-028>030-036>039-047>053-260700-
SOUTHEAST NORTH DAKOTA

CITY           SKY/WX    TMP DP  RH WIND       PRES   REMARKS
FARGO          CLEAR     61  56  83 SW6       29.80F
6HR MIN TEMP:  61; 6HR MAX TEMP:  81;

JAMESTOWN      CLEAR     61  56  83 S8        29.82S
$$




USA.gov is the U.S. government's official web portal to all federal, state and local government web resources and services.